Albany, NY

3:57 AM EDT on May 28, 2017 (GMT -0400)
Albany International

Weather History for KALB - April, 2013

Change the Weather History Date:

Wednesday, April 3, 2013

  Actual Average Record
Temperature  
Mean Temperature 33 °F 43 °F  
Max Temperature 41 °F 53 °F 79 °F (1981)
Min Temperature 25 °F 33 °F 16 °F (1954)
Degree Days  
Heating Degree Days 32 22  
Month to date heating degree days 91 68  
Since 1 July heating degree days 5588 5941  
Cooling Degree Days 0 0  
Month to date cooling degree days 0 0  
Year to date cooling degree days 0 0  
Moisture  
Dew Point 15 °F    
Average Humidity 49    
Maximum Humidity 69    
Minimum Humidity 29    
Precipitation  
Precipitation T in 0.11 in 1.90 in (1975)
Month to date precipitation 0.06 0.32  
Year to date precipitation 5.68 8.32  
Snow  
Snow T in 0.10 in 11.00 in (1891)
Month to date snowfall 1.2 0.4  
Since 1 July snowfall 51.4 58.3  
Snow Depth 0.00 in    
Sea Level Pressure  
Sea Level Pressure 30.12 in    
Wind  
Wind Speed 16 mph (WNW)    
Max Wind Speed 30 mph    
Max Gust Speed 40 mph    
Visibility 10 miles    
Events Snow    
T = Trace of Precipitation, MM = Missing Value Source: NWS Daily Summary

Daily Weather History Graph

Daily Weather History Graph

Search for Another Location

Airport or City:

Trip Planner

Search our weather history database for the weather conditions in past years. The results will help you decide how hot, cold, wet, or windy it might be!

Date:

Astronomy

Apr. 03, 2013 Rise Set
Actual Time 6:33 AM EDT 7:23 PM EDT
Civil Twilight 6:04 AM EDT 7:52 PM EDT
Nautical Twilight 5:30 AM EDT 8:26 PM EDT
Astronomical Twilight 4:55 AM EDT 9:02 PM EDT
Moon 2:21 AM EDT (4/3) 12:24 PM EDT (4/3)
Length of Visible Light 13h 47m
Length of Day
12h 50m
Last Quarter, 45% of the Moon is Illuminated
Apr 3
Last Quarter
Apr 10
New
Apr 18
First Quarter
Apr 25
Full
May 2
Last Quarter

Hourly Weather History & Observations

Time (EDT) Temp. Windchill Dew Point Humidity Pressure Visibility Wind Dir Wind Speed Gust Speed Precip Events Conditions
12:51 AM 30.0 °F 17.9 °F 18.0 °F 61% 30.02 in 10.0 mi West 18.4 mph 29.9 mph 0.00 in   Mostly Cloudy
1:51 AM 28.9 °F 18.2 °F 19.0 °F 67% 30.03 in 10.0 mi WNW 13.8 mph - 0.00 in Snow Light Snow
2:51 AM 28.0 °F 16.1 °F 19.9 °F 72% 30.03 in 6.0 mi WNW 16.1 mph 21.9 mph 0.00 in Snow Light Snow
2:54 AM 28.4 °F 16.6 °F 21.2 °F 74% 30.02 in 2.0 mi WNW 16.1 mph 24.2 mph 0.00 in Snow Light Snow
3:10 AM 28.4 °F 16.6 °F 21.2 °F 74% 30.02 in 5.0 mi WNW 16.1 mph 24.2 mph 0.00 in Snow Light Snow
3:51 AM 27.0 °F 18.7 °F 19.0 °F 72% 30.03 in 10.0 mi West 8.1 mph - 0.00 in   Scattered Clouds
4:51 AM 27.0 °F 19.5 °F 18.0 °F 69% 30.04 in 10.0 mi West 6.9 mph - N/A   Partly Cloudy
5:51 AM 27.0 °F 18.0 °F 17.1 °F 66% 30.05 in 10.0 mi West 9.2 mph - N/A   Partly Cloudy
6:51 AM 26.1 °F 16.8 °F 17.1 °F 69% 30.08 in 10.0 mi West 9.2 mph - N/A   Scattered Clouds
7:51 AM 28.9 °F 19.8 °F 18.0 °F 64% 30.10 in 10.0 mi West 10.4 mph - N/A   Scattered Clouds
8:51 AM 30.9 °F 20.7 °F 17.1 °F 57% 30.10 in 10.0 mi WNW 13.8 mph 20.7 mph N/A   Scattered Clouds
9:51 AM 33.1 °F 22.2 °F 12.9 °F 43% 30.10 in 10.0 mi WNW 17.3 mph 28.8 mph N/A   Scattered Clouds
10:51 AM 35.1 °F 24.8 °F 12.0 °F 39% 30.10 in 10.0 mi WNW 17.3 mph 34.5 mph N/A   Scattered Clouds
11:51 AM 37.0 °F 26.7 °F 10.9 °F 34% 30.11 in 10.0 mi WNW 19.6 mph 27.6 mph N/A   Scattered Clouds
12:51 PM 37.9 °F 26.8 °F 9.0 °F 30% 30.10 in 10.0 mi WNW 24.2 mph 31.1 mph N/A   Partly Cloudy
1:51 PM 39.9 °F 29.2 °F 10.0 °F 29% 30.11 in 10.0 mi West 25.3 mph 36.8 mph N/A   Partly Cloudy
2:51 PM 39.0 °F 29.6 °F 10.9 °F 32% 30.12 in 10.0 mi WNW 18.4 mph 32.2 mph N/A   Scattered Clouds
3:51 PM 39.0 °F 28.5 °F 14.0 °F 36% 30.11 in 10.0 mi West 23.0 mph 32.2 mph N/A   Scattered Clouds
4:51 PM 39.0 °F 30.6 °F 12.9 °F 34% 30.13 in 10.0 mi West 15.0 mph 33.4 mph N/A   Scattered Clouds
5:51 PM 36.0 °F 23.9 °F 12.9 °F 39% 30.16 in 10.0 mi NW 25.3 mph 34.5 mph N/A   Scattered Clouds
6:51 PM 34.0 °F 20.8 °F 12.0 °F 40% 30.20 in 10.0 mi West 27.6 mph 35.7 mph N/A   Partly Cloudy
7:51 PM 32.0 °F 21.6 °F 14.0 °F 48% 30.22 in 10.0 mi WNW 15.0 mph - N/A   Scattered Clouds
8:51 PM 32.0 °F 22.1 °F 12.9 °F 45% 30.26 in 10.0 mi WNW 13.8 mph 25.3 mph N/A   Partly Cloudy
9:51 PM 30.9 °F 21.2 °F 14.0 °F 50% 30.27 in 10.0 mi WNW 12.7 mph - N/A   Clear
10:51 PM 30.9 °F 21.2 °F 15.1 °F 52% 30.29 in 10.0 mi WNW 12.7 mph 19.6 mph N/A   Clear
11:51 PM 30.9 °F 21.2 °F 15.1 °F 52% 30.30 in 10.0 mi WNW 12.7 mph 20.7 mph N/A   Clear